| time (UTC) | temp F | wind direction | speed MPH | gust MPH | rain 1hr in | rain 24hr in | rain mn in | humidity % | barometer mb |
| 20260510123505 | 78 | 207 | 0.0 | 2.0 | 0.00 | 0.00 | 0.00 | 80 | 1014.7 |
| 20260510123005 | 77 | 180 | 0.0 | 2.0 | 0.00 | 0.00 | 0.00 | 82 | 1014.8 |
| 20260510122505 | 76 | 186 | 1.0 | 2.0 | 0.00 | 0.00 | 0.00 | 83 | 1014.7 |
| 20260510122004 | 76 | 176 | 1.0 | 2.0 | 0.00 | 0.00 | 0.00 | 83 | 1014.6 |
| 20260510121505 | 76 | 173 | 1.0 | 2.0 | 0.00 | 0.00 | 0.00 | 84 | 1014.5 |
| 20260510121005 | 76 | 212 | 0.0 | 0.0 | 0.00 | 0.00 | 0.00 | 85 | 1014.5 |
| 20260510120505 | 75 | 223 | 0.0 | 0.0 | 0.00 | 0.00 | 0.00 | 87 | 1014.5 |
| 20260510120004 | 75 | 242 | 0.0 | 0.0 | 0.00 | 0.00 | 0.00 | 88 | 1014.4 |
| 20260510115504 | 75 | 247 | 0.0 | 0.0 | 0.00 | 0.00 | 0.00 | 88 | 1014.3 |
| 20260510115005 | 74 | 247 | 0.0 | 0.0 | 0.00 | 0.00 | 0.00 | 89 | 1014.3 |
| 20260510114504 | 74 | 247 | 0.0 | 0.0 | 0.00 | 0.00 | 0.00 | 89 | 1014.2 |
| 20260510114007 | 74 | 247 | 0.0 | 0.0 | 0.00 | 0.00 | 0.00 | 88 | 1014.1 |
| 20260510113505 | 74 | 248 | 0.0 | 1.0 | 0.00 | 0.00 | 0.00 | 88 | 1014.1 |
| 20260510113005 | 74 | 249 | 0.0 | 1.0 | 0.00 | 0.00 | 0.00 | 88 | 1014.1 |
| 20260510112005 | 73 | 200 | 0.0 | 0.0 | 0.00 | 0.00 | 0.00 | 90 | 1013.7 |
| 20260510111505 | 73 | 201 | 0.0 | 0.0 | 0.00 | 0.00 | 0.00 | 90 | 1013.5 |
| 20260510111004 | 73 | 201 | 0.0 | 0.0 | 0.00 | 0.00 | 0.00 | 90 | 1013.5 |
| 20260510110505 | 73 | 200 | 0.0 | 0.0 | 0.00 | 0.00 | 0.00 | 89 | 1013.3 |
| 20260510110005 | 73 | 200 | 0.0 | 0.0 | 0.00 | 0.00 | 0.00 | 89 | 1012.9 |
| 20260510105505 | 73 | 200 | 0.0 | 0.0 | 0.00 | 0.00 | 0.00 | 88 | 1013.0 |
| 20260510105005 | 73 | 200 | 0.0 | 0.0 | 0.00 | 0.00 | 0.00 | 87 | 1012.9 |
| 20260510104504 | 74 | 200 | 0.0 | 0.0 | 0.00 | 0.00 | 0.00 | 87 | 1012.7 |
| 20260510104005 | 74 | 200 | 0.0 | 2.0 | 0.00 | 0.00 | 0.00 | 86 | 1012.7 |